GW4027 Weather Reports


time (UTC)temp
C
wind
direction
speed
KPH
gust
KPH
rain 1hr
cm
rain 24hr
cm
rain mn
cm
humidity
%
barometer
mb
20260508122703 15 152 1.6 4.8 0.00 0.00 0.00 65 1012.6
20260508121803 14 175 1.6 4.8 0.00 0.00 0.00 68 1012.4
20260508120903 15 175 1.6 4.8 0.00 0.00 0.00 63 1012.3
20260508120003 14 145 1.6 4.8 0.00 0.00 0.00 66 1012.5
20260508115403 14 161 1.6 3.2 0.00 0.00 0.00 68 1012.6
20260508114503 14 216 1.6 4.8 0.00 0.00 0.00 68 1012.4
20260508113603 14 216 1.6 4.8 0.00 0.00 0.00 69 1012.6
20260508112703 15 231 1.6 3.2 0.00 0.00 0.00 68 1012.4
20260508111803 13 204 1.6 4.8 0.00 0.00 0.00 69 1012.3
20260508110924 14 16 1.6 4.8 0.00 0.00 0.00 66 1012.2
20260508110024 13 23 1.6 4.8 0.00 0.00 0.00 69 1012.1
20260508105403 14 2 1.6 4.8 0.00 0.00 0.00 66 1012.1
20260508104503 13 199 1.6 4.8 0.00 0.00 0.00 67 1012.1
20260508103603 14 173 1.6 6.4 0.00 0.00 0.00 66 1012.2
20260508102703 14 174 1.6 6.4 0.00 0.00 0.00 66 1012.2
20260508101803 13 183 1.6 4.8 0.00 0.00 0.00 69 1012.4
20260508100924 14 195 1.6 4.8 0.00 0.00 0.00 70 1012.2
20260508100003 15 200 1.6 4.8 0.00 0.00 0.00 64 1012.0
20260508094503 14 150 1.6 4.8 0.00 0.00 0.00 67 1012.0
20260508093603 14 178 1.6 3.2 0.00 0.00 0.00 66 1011.9
20260508092703 14 182 1.6 3.2 0.00 0.00 0.00 66 1011.9
20260508091803 13 143 1.6 4.8 0.00 0.00 0.00 67 1011.9
20260508090903 13 17 1.6 4.8 0.00 0.00 0.00 69 1011.9
20260508090003 14 141 1.6 3.2 0.00 0.00 0.00 66 1011.8
20260508085403 13 242 0.0 3.2 0.00 0.00 0.00 67 1012.0
20260508084503 14 281 1.6 3.2 0.00 0.00 0.00 67 1011.8
20260508083603 14 338 1.6 3.2 0.00 0.00 0.00 66 1011.7
20260508082724 13 304 0.0 1.6 0.00 0.00 0.00 68 1011.8
20260508081803 13 155 1.6 3.2 0.00 0.00 0.00 71 1011.8
20260508080903 13 187 1.6 3.2 0.00 0.00 0.00 69 1011.6
20260508080003 13 219 0.0 3.2 0.00 0.00 0.00 70 1011.6
20260508075403 13 179 0.0 1.6 0.00 0.00 0.00 69 1011.5
20260508074503 13 58 0.0 1.6 0.00 0.00 0.00 70 1011.4
20260508073624 12 360 0.0 3.2 0.00 0.00 0.00 72 1011.5
20260508072724 12 337 0.0 3.2 0.00 0.00 0.00 72 1011.5
20260508071803 12 324 0.0 3.2 0.00 0.00 0.00 73 1011.2
20260508070903 12 284 0.0 1.6 0.00 0.00 0.00 74 1011.3
20260508070003 12 330 0.0 1.6 0.00 0.00 0.00 73 1011.1
20260508065424 12 330 0.0 1.6 0.00 0.00 0.00 75 1011.2
20260508063624 10 339 0.0 1.6 0.00 0.00 0.00 80 1010.9
20260508062703 11 0 0.0 0.0 0.00 0.00 0.00 79 1010.9
20260508061803 11 0 0.0 0.0 0.00 0.00 0.00 78 1010.8
20260508060903 11 0 0.0 0.0 0.00 0.00 0.00 76 1010.6
20260508060003 11 0 0.0 0.0 0.00 0.00 0.00 79 1010.6
20260508055403 11 0 0.0 0.0 0.00 0.00 0.00 82 1010.5
20260508054503 10 0 0.0 0.0 0.00 0.00 0.00 86 1010.4
20260508053603 8 0 0.0 0.0 0.00 0.00 0.00 87 1010.6
20260508052703 8 216 0.0 1.6 0.00 0.00 0.00 86 1010.3
20260508051803 7 217 0.0 1.6 0.00 0.00 0.00 88 1010.4
20260508050903 7 73 0.0 1.6 0.00 0.00 0.00 88 1010.4
20260508050024 7 351 0.0 1.6 0.00 0.00 0.00 89 1010.3
20260508045424 7 319 0.0 1.6 0.00 0.00 0.00 90 1010.5
20260508044524 6 0 0.0 0.0 0.00 0.00 0.00 89 1010.2
20260508043603 7 297 0.0 1.6 0.00 0.00 0.00 89 1010.2
20260508042703 7 0 0.0 0.0 0.00 0.00 0.00 89 1010.1
20260508041803 7 0 0.0 0.0 0.00 0.00 0.00 87 1010.1
20260508040903 7 0 0.0 0.0 0.00 0.00 0.00 85 1010.2
20260508040003 8 25 0.0 1.6 0.00 0.00 0.00 84 1010.1
20260508035403 8 41 0.0 1.6 0.00 0.00 0.00 84 1010.1
20260508034503 8 36 0.0 1.6 0.00 0.00 0.00 83 1009.8
20260508033603 8 47 0.0 3.2 0.00 0.00 0.00 83 1009.6
20260508032703 8 26 0.0 3.2 0.00 0.00 0.00 84 1010.0
20260508031803 8 118 0.0 1.6 0.00 0.00 0.00 85 1009.8
20260508030903 8 145 0.0 3.2 0.00 0.00 0.00 84 1009.7
20260508030003 8 38 0.0 3.2 0.00 0.00 0.00 84 1009.7
20260508025424 8 60 0.0 3.2 0.00 0.00 0.00 84 1009.7
20260508024503 8 46 0.0 1.6 0.00 0.00 0.00 84 1010.0
20260508023603 8 60 0.0 3.2 0.00 0.00 0.00 84 1010.0
20260508022703 8 45 0.0 3.2 0.00 0.00 0.00 84 1009.9
20260508021824 8 6 0.0 1.6 0.00 0.00 0.00 85 1009.8
20260508020903 7 205 0.0 4.8 0.00 0.00 0.00 85 1009.6
20260508020003 8 211 0.0 3.2 0.00 0.00 0.00 85 1009.7
20260508015403 8 188 0.0 1.6 0.00 0.00 0.00 85 1009.8
20260508014524 8 203 1.6 3.2 0.00 0.00 0.00 84 1009.6
20260508013603 7 198 1.6 3.2 0.00 0.00 0.00 85 1009.5
20260508012703 7 204 0.0 3.2 0.00 0.00 0.00 86 1009.6
20260508011803 7 198 0.0 1.6 0.00 0.00 0.00 87 1009.5
20260508010903 7 161 0.0 1.6 0.00 0.00 0.00 87 1009.7
20260508010003 7 144 0.0 1.6 0.00 0.00 0.00 86 1009.8
20260508005424 7 133 0.0 1.6 0.00 0.00 0.00 85 1009.7
20260508004503 8 148 0.0 1.6 0.00 0.00 0.00 84 1009.9
20260508003603 8 178 0.0 3.2 0.00 0.00 0.00 84 1009.8
20260508002703 8 184 0.0 3.2 0.00 0.00 0.00 84 1009.8
20260508001803 8 186 0.0 1.6 0.00 0.00 0.00 84 1009.9
20260508000903 8 57 0.0 1.6 0.00 0.00 0.00 85 1009.8
20260508000003 8 0 0.0 0.0 0.00 0.00 0.00 84 1009.8
20260507235403 8 0 0.0 0.0 0.00 0.00 0.00 83 1009.7
20260507234524 8 34 0.0 1.6 0.00 0.00 0.00 82 1009.8
20260507233603 8 158 0.0 1.6 0.00 0.00 0.00 81 1009.7
20260507232703 9 165 0.0 4.8 0.00 0.00 0.00 80 1009.6
20260507231803 9 174 0.0 4.8 0.00 0.00 0.00 79 1009.5
20260507230903 10 178 0.0 3.2 0.00 0.00 0.00 78 1009.5
20260507230003 10 163 0.0 3.2 0.00 0.00 0.00 78 1009.4
20260507225403 10 170 0.0 4.8 0.00 0.00 0.00 77 1009.4
20260507224504 10 170 1.6 6.4 0.00 0.00 0.00 76 1009.4
20260507223624 10 181 1.6 6.4 0.00 0.00 0.00 77 1009.3
20260507222703 10 144 0.0 1.6 0.00 0.00 0.00 78 1009.3
20260507221824 10 210 0.0 1.6 0.00 0.00 0.00 77 1009.6
20260507220903 10 168 0.0 3.2 0.00 0.00 0.00 76 1009.1
20260507220003 10 189 0.0 1.6 0.00 0.00 0.00 76 1009.2
20260507215403 10 171 1.6 9.7 0.00 0.00 0.00 75 1009.3
20260507214503 11 190 1.6 9.7 0.00 0.00 0.00 74 1009.3
20260507213624 11 214 1.6 4.8 0.00 0.00 0.00 74 1009.2
20260507212724 10 211 1.6 4.8 0.00 0.00 0.00 75 1009.0
20260507211803 10 220 1.6 4.8 0.00 0.00 0.00 76 1009.0
20260507210903 10 200 0.0 4.8 0.00 0.00 0.00 76 1009.0
20260507210003 10 243 0.0 4.8 0.00 0.00 0.00 76 1009.0
20260507205403 10 195 0.0 3.2 0.00 0.00 0.00 76 1008.8
20260507204524 11 200 0.0 1.6 0.00 0.00 0.00 75 1008.7
20260507203603 11 176 0.0 3.2 0.00 0.00 0.00 75 1008.6
20260507202703 10 176 0.0 3.2 0.00 0.00 0.00 76 1008.5
20260507201803 11 181 0.0 1.6 0.00 0.00 0.00 75 1008.3
20260507200903 11 193 0.0 1.6 0.00 0.00 0.00 74 1008.4
20260507200003 11 186 0.0 3.2 0.00 0.00 0.00 74 1008.5
20260507195403 11 199 1.6 3.2 0.00 0.00 0.00 74 1008.3
20260507194503 11 200 1.6 4.8 0.00 0.00 0.00 73 1008.1
20260507193603 11 187 0.0 3.2 0.00 0.00 0.00 72 1008.0
20260507192703 12 183 0.0 1.6 0.00 0.00 0.00 72 1008.2
20260507191824 12 182 0.0 1.6 0.00 0.00 0.00 71 1008.2
20260507190903 12 184 1.6 6.4 0.00 0.00 0.00 71 1008.1
20260507190004 12 194 1.6 4.8 0.00 0.00 0.00 70 1007.9
20260507185424 12 194 1.6 3.2 0.00 0.00 0.00 70 1008.0
20260507184503 12 183 1.6 6.4 0.00 0.00 0.00 70 1007.7
20260507183603 12 192 1.6 4.8 0.00 0.00 0.00 69 1007.7
20260507182703 13 194 1.6 6.4 0.00 0.00 0.00 68 1007.5
20260507181803 13 210 1.6 3.2 0.00 0.00 0.00 67 1007.6
20260507180903 13 203 0.0 1.6 0.00 0.00 0.00 68 1007.5
20260507180003 13 200 1.6 4.8 0.00 0.00 0.00 68 1007.5
20260507175403 13 205 1.6 3.2 0.00 0.00 0.00 68 1007.5
20260507174503 13 204 3.2 12.9 0.00 0.00 0.00 71 1007.5
20260507173603 13 186 1.6 4.8 0.00 0.00 0.00 71 1007.5
20260507172703 13 202 1.6 4.8 0.00 0.00 0.00 71 1007.3
20260507171803 13 197 1.6 6.4 0.00 0.00 0.00 71 1007.3
20260507170903 13 183 1.6 4.8 0.00 0.00 0.00 73 1007.5
20260507170003 13 223 1.6 4.8 0.00 0.00 0.00 73 1007.6
20260507165403 12 226 3.2 12.9 0.00 0.00 0.00 73 1007.6
20260507164503 12 201 3.2 6.4 0.00 0.00 0.00 71 1007.5
20260507163603 12 204 3.2 11.3 0.00 0.00 0.00 71 1007.6
20260507162724 12 210 4.8 12.9 0.00 0.00 0.00 78 1007.7
20260507161803 12 229 3.2 11.3 0.00 0.00 0.00 79 1007.8
20260507160903 12 209 3.2 14.5 0.00 0.00 0.00 79 1007.7
20260507160003 12 210 3.2 11.3 0.00 0.00 0.00 78 1007.9
20260507155403 13 219 4.8 11.3 0.00 0.00 0.00 76 1007.8
20260507154503 13 209 4.8 14.5 0.00 0.00 0.00 76 1007.7
20260507153624 13 197 4.8 14.5 0.00 0.00 0.00 75 1007.8
20260507152703 13 199 4.8 16.1 0.00 0.00 0.00 76 1007.8
20260507151803 13 189 3.2 11.3 0.00 0.00 0.00 75 1007.9
20260507150924 13 214 3.2 14.5 0.00 0.00 0.00 75 1007.8
20260507150024 13 197 3.2 14.5 0.00 0.00 0.00 73 1007.7
20260507145403 13 205 3.2 9.7 0.00 0.00 0.00 72 1008.0
20260507144503 13 202 3.2 9.7 0.00 0.00 0.00 71 1008.0
20260507143624 13 214 1.6 4.8 0.00 0.00 0.00 72 1008.2
20260507142703 13 212 3.2 9.7 0.00 0.00 0.00 73 1008.1
20260507141803 13 190 1.6 11.3 0.00 0.00 0.00 71 1008.2
20260507140903 13 193 3.2 9.7 0.00 0.00 0.00 69 1008.2
20260507140003 13 187 3.2 6.4 0.00 0.00 0.00 67 1008.3
20260507135403 13 213 3.2 11.3 0.00 0.00 0.00 66 1008.3
20260507134503 13 180 3.2 11.3 0.00 0.00 0.00 67 1008.3
20260507133603 13 189 3.2 9.7 0.00 0.00 0.00 73 1008.4
20260507132724 13 191 3.2 9.7 0.00 0.00 0.00 72 1008.2
20260507131824 13 234 3.2 9.7 0.00 0.00 0.00 74 1008.3
20260507130903 13 198 4.8 11.3 0.00 0.00 0.00 74 1008.3
20260507130003 14 225 3.2 12.9 0.00 0.00 0.00 70 1008.4
20260507125403 13 204 3.2 12.9 0.00 0.00 0.00 69 1008.4
20260507124503 14 202 4.8 11.3 0.00 0.00 0.00 67 1008.6
20260507123603 15 229 4.8 11.3 0.00 0.00 0.00 66 1008.4